星链-31342 (STARLINK-31342 )

导读 | 星芒AI

STARLINK-31342 是 SpaceX Starlink 项目中的一颗低轨通信卫星,属于该计划的第三批发射任务。该卫星于2023年发射,运行在约550公里高的近地轨道,旨在为全球用户提供高速互联网服务。Starlink 卫星群由数千颗卫星组成,通过激光通信和地面基站实现全球覆盖,特别服务于偏远地区。STARLINK-31342 采用先进推进系统,具备自主变轨和避碰能力,有助于提升星座的稳定性和可持续性。

基本信息
目录编号:
59166
目录名称:
STARLINK-31342
国际标识:
2024-044Q
轨道中心:
EARTH
卫星名称:
星链-31342
卫星全名:
星链-31342 (STARLINK-31342 )
卫星状态:
在轨 (已飞行655 天)
发射日期:
2024-03-04 UTC
国别 :
美国 (US)
星等 :
--
轨道信息
数据来源 国际轨道数据 AOE轨道数据
星历时间 2025-12-19T07:38:24+0800
23小时前
查看轨道信息
2025-12-19T01:00:00+0800
1天前
查看轨道信息
半长轴 6861.244km 6861.095km
偏心率 0.0001301 0.0001169
轨道倾角 43.003° 43.002°
近地点辐角 269.320° 293.353°
升交点赤经 202.741° 204.300°
平近点角 90.750° 343.583°
近地点 482.214km 482.157km
远地点 484km 483.763km
周期 94.268分钟 94.265分钟
每日圈数 15.275607 15.276107
详细信息
固有亮度:
5
最大亮度:
0.3
卫星平台:
Starlink v2.0 mini
覆盖范围:
全球
运营商:
太空探索技术公司
运营商所在国:
美国
制造商(研发单位):
太空探索技术公司
制造商所在国:
美国
使用方式:
暂无
卫星简介
星链(Starlink)计划是由太空探索技术公司(SpaceX)提出的一个巨型低轨卫星互联网星座项目,计划在2019年至2024年间在太空搭建由约1.2万颗卫星组成的“星链”网络,其中1584颗将部署在地球上空550千米处的近地轨道,并从2020年开始工作。该卫星仍在工作。
2D轨道图
3D轨道图
轨道高度分析图
轨道倾角分析图
轨道综合分析图
查看轨道综合分析图